Temp
81 84 78 70 61 67 57 50 53 57 65 73 74 76 79 80 79 80 81 80 80 81 80 80 80 79 78 76 75 73 71 68
82 80 78 77 74 60 54 49 46 54 58 59 65 70 74 76 76 78 81 80 81 81 80 80 81 80 80 78 76 75 73 72
70 68 70 68 63 61 60 54 50 48 54 66 70 72 72 75 80 76 78 80 80 81 82 80 82 80 79 78 76 75 74 72
68 76 79 73 68 62 56 53 52 53 56 72 73 73 77 78 78 76 79 80 81 82 82 80 80 79 78 78 77 76 75 70
60 64 68 71 68 64 58 55 53 52 56 72 72 70 74 73 74 75 76 77 81 82 81 80 80 78 78 78 77 75 73 70
61 60 67 65 70 68 63 54 53 56 61 65 70 71 71 73 74 74 74 77 79 80 81 80 80 79 78 77 77 73 71 71
65 75 73 76 74 69 64 64 62 63 64 66 68 71 72 75 76 75 74 72 78 80 80 79 79 79 77 77 74 73 72 71
69 72 76 73 76 75 74 71 66 66 64 71 74 75 72 77 76 74 74 74 75 79 80 79 80 78 76 76 74 72 71 71
57 67 70 65 68 72 72 73 73 63 70 71 68 72 72 73 74 75 76 76 73 74 74 80 81 80 76 75 72 70 69 69
56 58 52 67 75 78 70 70 69 71 71 72 72 71 71 72 74 76 78 77 74 73 74 80 83 79 74 70 70 70 68 69
51 51 58 66 69 70 69 67 70 67 71 73 74 73 69 75 76 76 76 75 76 74 72 73 80 78 73 69 69 69 68 68
50 52 50 56 68 73 71 56 71 70 69 71 72 63 65 71 76 76 76 77 77 76 71 70 74 74 73 69 68 67 68 70
47 47 53 65 68 72 55 56 67 71 69 69 69 67 70 72 75 75 77 78 77 74 74 71 73 73 69 68 68 68 69 70
48 49 47 68 68 60 61 64 70 70 70 69 67 69 71 74 76 76 74 76 76 74 70 72 75 73 67 67 65 66 65 65
50 49 57 62 63 60 62 65 68 69 71 71 71 70 72 73 72 73 75 75 74 70 66 67 69 66 62 61 64 64 63 63
54 59 59 62 65 67 67 66 68 69 68 69 68 73 74 71 71 69 66 67 66 65 63 61 64 64 64 65 64 63 62 62
54 59 60 65 66 68 69 70 70 70 71 69 70 69 69 68 65 64 63 63 64 64 63 61 63 63 64 64 63 62 63 63
50 56 56 57 61 65 66 66 67 67 71 72 72 69 69 69 65 62 62 62 62 63 63 62 62 61 61 63 62 60 59 63
55 57 59 64 67 69 69 70 71 69 66 65 69 69 70 65 63 62 62 63 63 62 62 62 61 61 63 62 63 62 62 62
MSLP
997.94 998.21 998.85 999.80 1000.52 1001.41 1003.37 1004.93 1005.14 1004.12 1002.88 1001.25 1000.69 1001.53 1002.25 1002.84 1003.90 1004.15 1004.81 1005.73 1006.50 1007.33 1007.94 1008.65 1009.21 1009.73 1010.37 1011.10 1011.80 1012.50 1013.05 1013.63
997.57 997.71 997.77 998.13 999.27 1001.59 1003.25 1004.65 1005.34 1004.51 1003.59 1002.35 1001.94 1001.66 1001.97 1002.69 1003.19 1003.58 1004.31 1005.19 1005.96 1006.66 1007.02 1007.54 1007.84 1008.50 1009.32 1010.05 1010.74 1011.44 1012.24 1012.96
998.12 997.45 997.64 998.20 999.10 1000.87 1002.27 1003.68 1004.67 1004.66 1003.72 1001.28 1000.81 1000.89 1001.53 1001.96 1002.17 1003.37 1003.90 1004.34 1004.93 1005.57 1006.25 1006.72 1007.18 1008.06 1008.57 1009.55 1010.25 1010.93 1011.64 1012.40
997.91 996.87 996.66 996.69 998.37 1000.01 1001.97 1003.64 1004.05 1003.77 1002.48 1000.53 1000.14 1000.38 1000.78 1001.48 1001.93 1002.42 1003.16 1003.62 1004.16 1004.72 1005.35 1006.13 1006.64 1007.44 1007.95 1008.95 1009.71 1010.27 1011.10 1012.07
998.05 997.28 996.31 996.38 997.52 998.80 1000.14 1001.74 1003.12 1003.53 1002.10 1000.38 1000.43 1000.55 1000.55 1001.19 1001.71 1002.00 1002.80 1003.42 1003.51 1004.25 1004.92 1005.34 1005.95 1006.76 1007.40 1008.21 1008.98 1009.97 1010.76 1011.92
997.45 996.90 996.25 996.26 996.73 997.77 999.14 1001.16 1002.07 1001.81 1001.27 1000.80 1000.90 1001.02 1001.09 1001.21 1001.35 1001.58 1001.87 1002.57 1002.94 1003.50 1003.98 1004.36 1005.06 1005.74 1006.56 1007.48 1008.36 1009.41 1010.20 1010.97
996.53 995.96 995.84 995.40 995.66 996.79 998.05 998.89 1000.03 1000.30 1000.55 1000.25 1000.13 1000.09 1000.21 1000.38 1000.78 1001.39 1001.83 1002.27 1002.46 1002.90 1003.29 1003.86 1004.71 1005.36 1006.30 1007.17 1007.85 1008.60 1009.40 1010.50
996.56 995.81 995.38 995.03 995.09 995.63 996.78 997.90 998.45 998.82 999.26 998.76 998.90 999.43 1000.07 1000.01 1000.35 1000.66 1001.31 1001.77 1002.29 1002.42 1002.70 1003.10 1003.64 1004.40 1005.13 1006.00 1006.83 1008.11 1009.02 1009.92
997.14 996.20 995.71 995.39 994.74 994.98 996.06 996.93 997.97 998.47 998.05 998.22 999.17 999.56 999.55 999.90 1000.38 1000.56 1000.82 1001.28 1001.83 1002.38 1002.79 1002.91 1003.10 1003.53 1004.48 1005.43 1006.50 1007.32 1008.34 1009.31
997.60 996.85 996.43 995.51 994.56 995.31 996.82 997.53 997.98 997.60 997.24 997.32 997.88 998.57 999.11 999.07 999.37 999.93 1000.39 1000.99 1001.32 1001.77 1002.20 1002.14 1002.29 1003.22 1004.40 1005.41 1006.01 1007.14 1008.56 1009.34
998.61 998.21 997.37 996.30 996.95 996.73 997.12 998.52 998.19 997.74 997.41 997.49 997.82 998.80 999.43 999.05 999.02 999.34 999.77 1000.34 1000.85 1001.13 1001.53 1001.60 1001.89 1002.47 1003.67 1004.97 1005.66 1006.86 1008.11 1008.82
999.33 999.46 998.90 998.65 997.85 997.09 996.96 999.51 999.29 998.44 998.44 998.62 998.34 999.65 999.98 999.27 998.98 999.55 1000.01 1000.03 1000.64 1001.02 1001.18 1001.43 1001.92 1002.74 1003.47 1004.52 1005.49 1006.38 1007.18 1007.51
1000.72 1000.83 1000.28 999.10 998.25 997.28 998.90 1000.94 999.72 999.32 999.62 999.82 999.99 1000.52 1000.64 999.82 999.56 999.56 999.91 1000.12 1000.36 1000.80 1000.82 1001.40 1002.08 1002.71 1003.85 1004.55 1005.17 1005.80 1006.84 1007.47
1001.96 1001.87 1002.02 1000.46 999.48 999.76 1001.23 1000.65 1000.51 1000.63 1000.54 1001.08 1001.00 1001.13 1000.75 1000.61 1000.68 1000.73 1000.50 1000.27 1000.48 1000.84 1001.19 1001.53 1001.91 1002.79 1004.00 1004.85 1005.84 1006.74 1007.84 1008.71
1004.36 1004.82 1003.80 1002.63 1002.08 1001.76 1001.39 1001.59 1001.51 1001.58 1001.51 1001.69 1001.54 1002.15 1001.58 1001.10 1001.24 1001.34 1001.40 1000.79 1000.90 1001.30 1001.67 1002.47 1002.78 1003.85 1005.03 1006.38 1006.67 1007.37 1008.01 1008.89
1004.19 1005.04 1004.52 1003.48 1002.22 1002.28 1001.97 1002.19 1002.17 1002.85 1003.17 1002.33 1002.21 1001.70 1001.38 1001.60 1002.12 1002.61 1002.04 1001.36 1001.27 1001.73 1002.14 1002.97 1003.39 1004.04 1004.72 1005.62 1006.60 1007.78 1008.38 1008.45
1005.12 1004.12 1004.14 1004.02 1003.34 1002.65 1002.74 1002.10 1002.69 1003.15 1003.36 1003.14 1002.53 1002.42 1002.09 1002.63 1003.18 1002.91 1002.94 1002.96 1002.55 1002.41 1002.74 1003.69 1004.21 1004.48 1005.28 1006.03 1006.41 1007.18 1007.41 1007.60
1004.60 1004.19 1004.63 1005.06 1004.13 1003.40 1002.58 1003.07 1003.66 1004.03 1003.84 1003.95 1002.45 1003.26 1002.44 1002.04 1002.93 1003.84 1003.17 1003.33 1003.95 1004.01 1004.31 1004.47 1005.33 1005.71 1006.11 1006.32 1006.39 1006.83 1007.63 1007.53
1004.78 1005.06 1004.82 1004.10 1003.93 1003.85 1003.48 1003.43 1003.27 1003.91 1004.15 1004.34 1003.99 1003.93 1003.56 1003.97 1003.96 1003.40 1003.45 1003.45 1003.90 1004.28 1004.95 1005.62 1005.48 1005.75 1006.19 1006.58 1006.50 1006.24 1006.45 1006.74
Wind_Speed
11 11 12 9 4 11 8 1 4 4 8 7 6 16 16 17 17 20 21 21 22 20 18 19 20 21 20 18 16 15 11 8
14 5 7 15 8 4 4 7 4 5 5 7 4 12 12 13 16 18 18 19 19 19 20 20 19 20 19 19 19 17 14 11
1 6 11 2 3 5 7 6 7 3 8 8 15 17 18 17 17 13 17 20 20 20 19 20 19 19 18 18 17 15 13 11
18 12 8 9 10 8 8 5 1 6 9 5 13 13 16 16 14 12 18 19 20 21 20 19 20 18 19 17 16 15 13 11
9 8 3 8 6 7 6 6 7 7 7 1 4 3 8 10 8 9 14 15 19 17 18 19 20 18 18 17 17 13 11 11
14 10 5 6 7 7 9 6 6 7 5 3 6 10 7 10 12 10 11 18 19 18 19 19 20 20 19 17 16 14 13 13
10 19 10 14 12 9 6 9 10 9 11 11 12 13 14 13 11 10 9 10 16 18 18 18 17 16 15 14 14 16 15 14
16 7 8 7 9 14 7 5 2 6 7 11 12 9 8 12 10 9 7 9 10 15 17 19 20 18 18 18 18 15 15 14
9 7 6 4 2 6 3 5 6 7 13 10 5 9 10 9 9 10 9 6 9 9 10 14 17 17 17 17 15 17 15 12
6 5 5 8 1 13 11 4 7 6 9 16 14 8 7 7 9 10 10 9 8 7 10 16 17 14 10 11 16 16 13 13
7 5 5 3 5 5 7 5 6 2 6 8 12 7 3 6 7 9 8 6 4 5 7 10 15 14 16 16 16 15 15 15
3 7 6 1 6 5 7 7 9 7 8 6 5 8 4 3 7 7 8 7 7 7 4 7 9 13 17 17 15 15 15 17
3 5 3 6 8 2 11 8 5 5 8 6 7 4 3 2 5 7 8 9 7 6 9 10 11 14 15 15 16 14 13 11
4 5 5 15 7 10 5 3 7 8 6 9 7 5 6 8 8 6 3 4 6 8 7 9 14 15 13 10 7 10 10 11
5 4 7 9 9 2 4 6 6 10 6 6 7 3 2 1 3 6 11 5 5 2 9 7 8 12 12 3 11 12 12 8
8 4 4 6 6 8 9 8 9 7 6 6 5 7 7 5 3 6 5 5 5 10 12 12 14 13 14 9 11 10 6 7
1 3 2 4 5 4 7 11 9 8 6 6 9 9 6 3 3 4 4 5 3 9 12 12 11 12 12 11 10 8 8 9
6 4 5 6 4 4 11 6 1 3 7 6 6 3 1 4 1 3 5 7 9 10 12 13 8 7 7 6 7 7 5 4
7 7 7 3 6 4 8 7 9 9 7 6 6 5 7 3 4 6 7 8 11 12 10 7 8 8 5 5 6 9 9 5
Wind_Direction
222 220 163 238 147 188 134 65 67 258 300 329 204 194 183 183 180 192 188 184 185 185 183 184 184 186 185 181 179 181 178 164
253 183 250 185 175 94 359 161 202 282 259 232 200 181 194 189 186 188 188 185 186 188 189 192 192 189 187 185 182 181 175 171
61 213 207 74 124 61 118 137 159 222 268 216 200 184 185 200 208 168 182 187 187 194 194 196 194 190 189 187 182 183 177 171
247 248 228 163 171 145 135 230 150 156 265 263 183 183 180 201 202 184 186 189 192 193 192 192 195 190 191 187 188 186 175 179
306 333 354 161 165 140 107 89 184 137 257 137 53 125 178 166 194 194 178 188 197 191 193 193 195 193 190 189 190 177 170 173
222 213 183 194 161 160 139 138 173 204 190 161 183 178 185 178 168 181 177 178 186 191 199 197 194 193 189 188 183 167 171 179
214 222 209 203 182 159 151 180 163 217 183 209 192 181 183 177 172 171 186 168 185 194 200 197 195 195 193 185 179 171 176 181
228 229 212 163 210 159 152 130 70 158 214 196 198 164 166 180 174 160 192 178 191 206 198 195 194 192 185 186 186 166 176 185
215 158 116 69 123 215 245 73 198 168 221 159 162 185 172 160 166 154 149 154 181 180 197 208 203 193 186 183 164 178 175 175
173 106 131 233 182 106 93 7 326 257 187 176 177 168 160 166 146 152 151 165 177 175 197 204 202 195 168 163 173 167 179 189
130 143 200 43 27 154 137 343 317 240 83 125 124 89 34 193 162 162 165 164 176 194 208 206 200 179 168 169 172 170 177 197
85 119 167 219 297 356 101 18 324 75 74 96 70 96 257 303 142 144 158 149 171 211 200 159 179 168 166 172 168 171 181 197
87 130 312 274 290 212 77 221 321 56 68 66 85 155 272 62 62 149 167 181 191 185 187 179 161 159 169 170 181 173 182 197
2 54 25 352 313 83 209 49 68 40 60 82 57 26 32 16 356 350 353 275 228 186 194 165 165 160 166 160 90 79 70 71
92 157 260 320 70 91 81 90 59 67 27 77 80 23 95 188 316 337 305 279 249 250 96 79 96 113 105 113 106 116 110 120
115 242 298 319 28 37 61 63 43 68 26 47 25 5 358 352 290 261 306 321 139 121 117 113 119 121 130 128 114 109 100 79
280 99 359 8 21 97 72 60 41 22 16 31 26 4 14 10 344 33 12 350 37 108 112 106 109 111 116 127 129 142 162 181
194 125 122 267 280 287 81 88 360 21 4 357 72 302 312 147 357 194 117 82 64 85 104 112 116 117 106 137 137 145 193 142
149 199 198 179 5 19 71 44 57 46 38 13 34 22 9 325 284 186 156 134 129 135 138 148 142 140 183 231 212 193 197 204